Temp
74 75 74 74 75 76 75 75 75 75 75 75 75 75 75 76 77 77 77 77 77 77 76 76 76 76 78 76 76 76 76 76 75 75 74 75 75 76 77 76 75 75
74 75 76 76 76 77 75 76 76 76 75 75 76 75 76 76 76 77 77 77 77 77 76 76 76 76 76 76 76 76 75 75 76 78 76 75 75 75 75 76 76 75
74 74 75 75 75 75 77 77 77 76 76 77 77 77 77 77 77 76 77 77 77 77 77 77 76 77 77 76 76 77 76 75 76 76 76 75 75 75 75 76 75 76
74 75 75 76 76 76 76 76 76 76 76 76 76 78 79 80 78 77 76 79 77 77 77 77 77 77 77 77 76 76 76 75 76 75 75 75 75 75 75 75 76 76
75 75 75 76 76 76 76 77 77 76 77 77 78 77 78 77 77 77 77 77 76 77 77 77 77 77 77 77 76 76 76 76 75 74 75 75 75 75 76 76 75 75
75 75 75 76 76 76 76 76 77 77 77 78 78 78 78 78 78 78 78 77 77 78 78 77 77 77 77 77 76 76 76 77 76 75 75 74 75 75 77 77 75 74
76 75 75 76 76 76 77 77 77 78 78 79 78 78 78 78 78 78 78 78 78 78 78 77 77 77 77 77 76 76 75 75 75 75 75 75 75 75 76 75 75 75
77 76 76 75 76 76 76 77 77 77 78 77 78 78 78 79 78 79 79 79 78 78 77 78 77 77 77 77 76 76 76 77 76 75 75 75 74 75 75 76 75 74
77 77 76 76 77 77 77 78 78 77 77 77 78 79 78 79 79 79 78 78 78 78 77 77 77 77 77 77 76 76 76 76 77 76 75 75 75 75 75 75 75 75
76 77 78 77 78 78 78 78 79 78 78 78 79 79 79 78 79 79 79 77 78 77 77 77 77 77 77 77 77 77 76 76 76 76 76 76 76 76 76 75 75 75
76 77 78 78 78 79 79 79 80 80 79 79 79 79 80 78 77 78 78 77 78 78 77 77 77 77 77 77 77 77 77 77 77 76 76 76 76 76 78 76 76 76
72 73 75 77 78 79 80 81 81 80 80 79 79 79 79 80 79 78 79 78 78 78 78 78 77 77 77 77 78 78 77 77 77 77 77 76 76 76 76 76 76 76
71 72 72 73 75 75 75 76 79 81 81 81 80 80 80 80 80 79 78 78 78 79 79 78 77 77 77 77 77 77 77 77 77 77 77 76 77 77 77 77 77 77
72 72 72 72 72 72 73 74 75 76 77 79 80 80 81 81 81 80 79 79 79 79 79 79 78 77 77 76 77 77 77 77 77 77 77 77 77 77 77 78 78 78
72 72 72 73 74 72 73 74 74 73 73 73 75 79 82 82 82 82 81 79 79 79 79 79 79 78 78 78 77 76 77 77 77 77 77 76 76 77 77 77 78 79
72 73 73 73 73 73 73 73 73 74 75 74 74 74 76 78 80 80 81 80 79 79 78 79 79 79 79 76 77 79 77 78 78 77 76 76 76 75 76 76 78 78
72 72 72 72 72 72 72 72 72 73 74 73 73 73 73 73 76 78 80 81 81 80 79 79 80 81 75 70 70 72 79 77 77 77 76 76 76 75 75 76 77 77
71 72 72 72 72 72 72 72 72 73 73 73 73 73 72 73 73 75 76 78 81 80 80 81 80 78 71 68 69 68 73 79 78 78 78 76 76 76 77 77 77 77
71 71 72 72 72 73 73 73 73 72 72 72 72 73 73 71 71 73 73 74 77 77 79 81 80 75 69 68 67 67 67 73 79 79 78 78 77 77 77 76 76 76
70 71 71 71 71 71 72 73 73 72 72 73 73 73 72 72 72 72 72 72 72 73 74 76 78 77 69 66 66 65 66 68 76 79 79 78 78 77 78 77 76 76
70 70 70 70 70 71 71 71 71 71 72 72 73 72 72 72 72 72 72 73 73 74 73 75 79 74 68 65 64 64 65 67 74 77 79 79 79 78 77 78 77 77
69 69 69 70 70 70 71 70 70 70 70 72 72 72 73 73 73 73 73 72 73 73 74 74 77 68 65 64 62 62 63 70 73 74 76 78 79 78 78 77 77 77
68 69 69 69 69 69 70 70 70 70 70 72 71 72 71 71 71 72 73 73 73 74 73 72 75 69 62 62 60 60 62 70 72 74 75 76 77 78 78 78 77 77
69 69 69 69 68 68 69 70 70 70 70 72 71 71 71 72 72 72 72 73 73 73 74 74 75 72 61 60 60 58 63 70 71 72 74 74 76 77 77 77 77 80
69 69 69 69 68 67 69 69 69 69 70 70 71 71 71 72 72 72 72 73 74 74 77 75 74 73 63 59 59 60 62 68 70 71 72 73 74 75 76 76 77 79
67 68 68 68 67 67 68 69 69 69 68 69 70 70 71 71 72 71 71 72 74 75 76 75 74 74 73 63 58 57 59 68 69 69 70 72 73 74 74 76 77 77
MSLP
1019.25 1019.41 1019.65 1019.85 1019.97 1020.01 1020.21 1020.45 1020.53 1020.65 1020.73 1020.77 1020.97 1021.01 1021.05 1020.93 1020.89 1021.05 1021.13 1021.21 1021.33 1021.45 1021.53 1021.65 1021.69 1021.81 1021.85 1021.93 1021.97 1022.09 1022.21 1022.33 1022.37 1022.37 1022.49 1022.57 1022.61 1022.69 1022.81 1022.77 1022.77 1022.93
1019.17 1019.25 1019.37 1019.57 1019.77 1019.81 1019.93 1019.97 1020.21 1020.37 1020.53 1020.57 1020.61 1020.69 1020.73 1020.81 1020.85 1020.89 1021.05 1021.17 1021.21 1021.33 1021.33 1021.49 1021.57 1021.69 1021.81 1021.93 1022.01 1022.17 1022.21 1022.29 1022.41 1022.17 1022.41 1022.49 1022.53 1022.61 1022.69 1022.69 1022.73 1022.69
1019.09 1019.25 1019.37 1019.61 1019.77 1019.81 1019.81 1019.81 1019.93 1020.05 1020.21 1020.29 1020.33 1020.45 1020.61 1020.61 1020.77 1020.81 1020.89 1021.01 1021.17 1021.21 1021.29 1021.33 1021.45 1021.53 1021.65 1021.77 1021.89 1022.01 1022.13 1022.25 1022.37 1022.17 1022.25 1022.41 1022.37 1022.53 1022.53 1022.53 1022.57 1022.61
1018.97 1019.05 1019.25 1019.37 1019.49 1019.65 1019.61 1019.81 1019.85 1019.93 1020.01 1020.25 1020.37 1020.29 1020.37 1020.45 1020.61 1020.77 1020.85 1020.89 1021.09 1021.17 1021.17 1021.25 1021.33 1021.41 1021.49 1021.61 1021.77 1021.93 1021.97 1022.09 1022.05 1022.09 1022.25 1022.25 1022.29 1022.33 1022.45 1022.45 1022.49 1022.49
1018.89 1019.05 1019.09 1019.17 1019.25 1019.37 1019.49 1019.69 1019.81 1019.85 1019.93 1019.93 1020.01 1020.13 1020.29 1020.41 1020.61 1020.73 1020.85 1020.93 1020.97 1021.09 1021.17 1021.21 1021.21 1021.29 1021.37 1021.49 1021.61 1021.89 1021.97 1022.09 1022.05 1022.09 1022.25 1022.37 1022.21 1022.29 1022.25 1022.33 1022.49 1022.57
1018.85 1018.93 1019.01 1019.13 1019.21 1019.37 1019.61 1019.65 1019.65 1019.73 1019.81 1019.89 1019.93 1019.93 1020.05 1020.21 1020.41 1020.57 1020.73 1020.93 1020.93 1021.01 1021.13 1021.13 1021.21 1021.21 1021.29 1021.37 1021.53 1021.69 1021.85 1022.01 1022.01 1022.05 1022.29 1022.37 1022.33 1022.17 1022.21 1022.25 1022.41 1022.53
1018.89 1019.01 1019.13 1019.17 1019.29 1019.33 1019.49 1019.53 1019.53 1019.57 1019.65 1019.61 1019.65 1019.93 1019.93 1020.17 1020.29 1020.41 1020.53 1020.69 1020.85 1020.97 1021.05 1021.13 1021.17 1021.25 1021.21 1021.29 1021.45 1021.65 1021.73 1021.81 1021.89 1022.01 1022.21 1022.25 1022.25 1022.29 1022.17 1022.25 1022.33 1022.41
1018.73 1018.81 1019.01 1019.21 1019.37 1019.45 1019.57 1019.49 1019.53 1019.57 1019.49 1019.57 1019.77 1019.69 1019.77 1020.01 1020.13 1020.17 1020.29 1020.49 1020.69 1020.85 1020.93 1020.97 1021.05 1021.13 1021.17 1021.25 1021.49 1021.65 1021.69 1021.69 1021.89 1022.01 1022.17 1022.25 1022.25 1022.37 1022.21 1022.17 1022.21 1022.37
1018.65 1018.85 1019.01 1019.17 1019.37 1019.45 1019.57 1019.49 1019.45 1019.45 1019.41 1019.65 1019.69 1019.65 1019.61 1019.69 1019.85 1019.97 1020.13 1020.29 1020.53 1020.65 1020.81 1020.93 1020.97 1021.09 1021.09 1021.25 1021.37 1021.49 1021.65 1021.69 1021.69 1021.85 1022.05 1022.21 1022.33 1022.29 1022.21 1022.05 1022.21 1022.29
1018.73 1018.77 1018.97 1019.13 1019.37 1019.33 1019.45 1019.33 1019.29 1019.33 1019.29 1019.49 1019.53 1019.53 1019.65 1019.57 1019.61 1019.77 1019.93 1020.17 1020.37 1020.53 1020.65 1020.77 1020.89 1020.97 1021.09 1021.13 1021.25 1021.33 1021.45 1021.53 1021.57 1021.65 1021.73 1021.85 1022.01 1022.05 1022.05 1022.09 1022.13 1022.21
1018.89 1018.93 1019.05 1019.09 1019.17 1019.21 1019.29 1019.21 1019.21 1019.17 1019.17 1019.29 1019.37 1019.53 1019.49 1019.57 1019.65 1019.61 1019.85 1020.01 1020.25 1020.37 1020.49 1020.61 1020.65 1020.73 1020.93 1021.05 1021.09 1021.09 1021.21 1021.29 1021.37 1021.45 1021.49 1021.53 1021.61 1021.65 1021.69 1021.81 1021.89 1021.97
1019.05 1018.93 1018.97 1019.01 1019.01 1019.05 1019.09 1019.09 1019.05 1019.09 1019.13 1019.17 1019.21 1019.41 1019.41 1019.41 1019.53 1019.57 1019.65 1019.85 1019.89 1020.01 1020.09 1020.21 1020.29 1020.45 1020.61 1020.73 1020.85 1020.97 1021.09 1021.13 1021.13 1021.21 1021.25 1021.29 1021.33 1021.37 1021.41 1021.45 1021.61 1021.65
1018.21 1018.49 1018.61 1018.73 1018.73 1018.85 1018.85 1018.89 1018.93 1018.85 1018.89 1019.05 1019.05 1019.21 1019.37 1019.41 1019.33 1019.37 1019.33 1019.41 1019.57 1019.65 1019.81 1019.93 1020.05 1020.17 1020.33 1020.49 1020.61 1020.73 1020.89 1021.09 1021.13 1021.13 1021.13 1021.13 1021.09 1021.09 1021.05 1021.09 1021.17 1021.25
1018.05 1017.81 1017.81 1018.09 1018.53 1018.69 1018.73 1018.77 1018.81 1018.85 1018.81 1018.65 1018.69 1019.01 1019.13 1019.13 1019.13 1019.13 1019.09 1019.13 1019.25 1019.37 1019.41 1019.49 1019.73 1019.93 1020.05 1020.17 1020.33 1020.49 1020.69 1020.89 1021.01 1021.09 1021.13 1021.09 1021.01 1020.93 1020.85 1020.85 1020.81 1020.85
1018.09 1018.17 1018.37 1018.37 1018.33 1018.57 1018.73 1018.73 1018.81 1018.93 1018.93 1018.77 1018.57 1018.57 1018.57 1018.61 1018.65 1018.73 1018.93 1019.05 1019.01 1019.09 1019.17 1019.25 1019.49 1019.61 1019.65 1019.85 1020.13 1020.33 1020.45 1020.69 1020.77 1020.89 1020.97 1021.01 1020.97 1020.85 1020.73 1020.65 1020.57 1020.49
1018.21 1018.21 1018.29 1018.41 1018.49 1018.53 1018.61 1018.73 1018.89 1019.09 1019.17 1018.97 1018.65 1018.41 1018.37 1018.33 1018.45 1018.49 1018.65 1018.81 1018.97 1019.01 1019.05 1019.17 1019.29 1019.21 1019.21 1019.33 1019.53 1019.77 1020.09 1020.25 1020.41 1020.53 1020.61 1020.69 1020.77 1020.77 1020.65 1020.49 1020.33 1020.25
1018.49 1018.53 1018.49 1018.65 1018.61 1018.61 1018.69 1018.85 1019.01 1019.13 1019.29 1019.25 1018.89 1018.53 1018.37 1018.29 1018.37 1018.57 1018.57 1018.49 1018.57 1018.69 1018.93 1019.01 1019.01 1018.93 1018.97 1019.17 1019.37 1019.41 1019.53 1019.81 1020.05 1020.13 1020.17 1020.33 1020.41 1020.53 1020.53 1020.33 1020.13 1019.97
1018.65 1018.65 1018.77 1018.85 1018.81 1018.89 1018.89 1018.93 1019.01 1019.13 1019.25 1019.21 1019.09 1018.81 1018.53 1018.45 1018.49 1018.41 1018.37 1018.33 1018.29 1018.29 1018.45 1018.53 1018.57 1018.49 1018.61 1018.85 1019.05 1019.21 1019.29 1019.37 1019.49 1019.69 1019.81 1019.93 1020.01 1020.09 1020.05 1020.05 1020.01 1019.93
1018.89 1019.01 1019.09 1019.05 1019.01 1018.89 1018.77 1018.69 1018.81 1019.01 1019.17 1019.29 1019.25 1019.01 1018.85 1018.81 1018.73 1018.65 1018.53 1018.29 1018.21 1018.21 1018.25 1018.13 1018.21 1018.09 1018.33 1018.49 1018.65 1018.77 1018.93 1019.09 1019.17 1019.25 1019.49 1019.57 1019.61 1019.65 1019.69 1019.73 1019.77 1019.85
1019.09 1019.25 1019.45 1019.45 1019.33 1019.21 1019.13 1019.05 1019.01 1019.05 1018.97 1018.93 1019.05 1019.09 1019.17 1019.05 1018.81 1018.73 1018.61 1018.53 1018.41 1018.33 1018.25 1018.13 1018.09 1017.93 1018.09 1018.21 1018.29 1018.37 1018.49 1018.89 1018.97 1018.97 1019.05 1019.17 1019.25 1019.29 1019.29 1019.33 1019.33 1019.45
1019.49 1019.49 1019.61 1019.69 1019.61 1019.45 1019.45 1019.57 1019.53 1019.41 1019.13 1018.97 1018.97 1019.09 1019.21 1019.25 1019.05 1018.85 1018.69 1018.53 1018.41 1018.33 1018.37 1018.33 1018.13 1017.93 1017.93 1017.89 1017.85 1017.89 1017.97 1018.45 1018.69 1018.77 1018.81 1018.81 1018.77 1018.73 1018.77 1018.81 1018.77 1018.85
1019.97 1019.81 1019.73 1019.77 1019.81 1019.77 1019.81 1019.89 1019.81 1019.81 1019.65 1019.21 1019.01 1018.97 1018.89 1018.93 1019.05 1019.01 1018.85 1018.61 1018.41 1018.33 1018.37 1018.45 1018.09 1017.85 1017.69 1017.61 1017.61 1017.69 1017.73 1018.17 1018.37 1018.57 1018.61 1018.53 1018.41 1018.33 1018.33 1018.29 1018.33 1018.45
1020.17 1020.01 1019.93 1019.85 1019.89 1020.01 1020.05 1020.01 1019.97 1019.77 1019.57 1019.17 1019.13 1018.93 1018.89 1018.97 1019.21 1019.41 1019.13 1018.77 1018.49 1018.33 1018.37 1018.33 1018.05 1017.73 1017.65 1017.57 1017.53 1017.57 1017.97 1018.21 1018.21 1018.33 1018.33 1018.33 1018.17 1017.97 1017.97 1017.97 1018.01 1018.09
1019.97 1019.89 1019.97 1020.09 1020.25 1020.33 1020.17 1019.85 1019.61 1019.33 1019.17 1018.93 1019.13 1019.05 1018.89 1018.81 1019.05 1019.49 1019.49 1018.93 1018.53 1018.45 1018.25 1018.25 1018.01 1017.65 1017.65 1017.65 1017.65 1017.65 1017.81 1017.93 1018.05 1018.21 1018.21 1018.13 1017.97 1017.77 1017.73 1017.77 1017.73 1017.69
1020.09 1020.01 1020.13 1020.25 1020.37 1020.37 1020.13 1019.93 1019.69 1019.45 1019.17 1018.97 1018.97 1019.01 1018.97 1018.77 1018.93 1019.37 1019.49 1019.05 1018.49 1018.25 1018.01 1018.01 1017.93 1017.73 1017.65 1017.69 1017.69 1017.81 1017.93 1017.93 1018.01 1018.09 1018.21 1018.01 1017.93 1017.85 1017.61 1017.65 1017.53 1017.37
1020.57 1020.45 1020.37 1020.37 1020.37 1020.21 1020.01 1019.85 1019.69 1019.53 1019.41 1019.29 1019.17 1019.21 1019.29 1019.21 1019.25 1019.61 1019.69 1019.37 1018.69 1018.21 1018.01 1017.89 1017.93 1017.85 1017.73 1017.81 1017.93 1018.05 1018.17 1018.13 1018.09 1018.29 1018.29 1018.05 1017.89 1017.85 1017.81 1017.53 1017.33 1017.21
Wind_Speed
5 5 5 5 5 5 6 6 5 5 5 5 5 5 5 4 4 4 5 4 4 4 3 3 3 3 3 2 3 3 3 3 3 2 2 1 1 1 3 4 3 2
5 5 3 4 4 4 4 5 6 6 6 5 5 4 4 3 4 4 4 4 4 4 4 4 3 3 3 3 3 3 3 3 4 2 3 2 2 1 2 2 2 2
4 4 5 5 5 5 6 5 5 6 6 6 5 4 5 4 4 4 4 5 5 4 4 4 4 4 4 4 3 3 3 3 4 3 2 3 3 2 3 2 2 2
4 4 5 4 5 5 5 5 4 5 3 4 5 5 5 4 4 4 4 5 4 4 4 4 4 4 4 4 4 3 4 4 4 3 3 3 3 3 3 2 2 3
5 4 3 4 4 4 4 5 6 5 5 5 4 4 5 4 4 4 4 4 4 4 4 4 4 4 4 4 4 4 3 4 3 3 3 3 3 2 3 2 3 3
4 4 4 4 4 5 5 5 5 5 5 4 6 4 5 5 4 4 5 4 4 4 4 4 4 4 4 4 4 4 4 4 3 3 3 3 3 2 2 3 3 3
6 4 5 3 3 4 6 6 5 5 5 6 4 5 4 4 5 5 5 5 4 4 4 4 4 4 4 4 4 4 3 3 3 3 3 4 3 4 3 3 3 4
6 5 4 3 4 4 5 5 5 5 5 4 5 5 5 5 6 5 5 5 5 5 5 5 4 4 4 4 4 4 4 3 3 3 3 4 3 4 4 4 3 4
5 5 5 5 6 5 5 5 5 5 4 5 5 5 4 6 6 6 5 5 5 5 5 5 5 5 4 4 5 5 5 4 4 4 4 5 5 5 5 4 3 4
5 5 6 6 7 6 7 6 5 5 5 5 6 5 5 5 5 6 5 6 6 6 6 6 5 5 5 5 6 6 6 6 5 5 5 5 5 5 5 4 5 4
2 3 5 7 8 6 7 6 6 6 5 6 6 6 5 5 5 4 6 6 7 7 7 7 7 6 6 6 5 5 6 6 6 6 6 6 6 6 6 5 5 5
3 1 3 5 6 7 7 7 7 6 5 5 5 6 6 6 6 6 6 7 7 7 7 7 7 7 7 7 7 6 6 6 6 6 7 6 6 6 6 5 5 6
8 4 1 2 4 5 3 4 6 7 7 7 6 6 7 7 7 7 7 7 8 7 8 8 8 7 7 7 7 7 7 7 7 7 6 6 6 7 6 6 6 6
6 7 7 5 2 3 4 4 4 4 5 6 6 7 8 8 8 8 8 7 8 8 8 8 8 8 7 7 7 7 7 7 7 7 7 7 6 6 6 7 7 7
5 4 2 2 3 4 4 5 4 3 2 3 4 6 7 8 8 8 7 7 7 8 8 7 8 8 7 8 7 7 6 7 7 8 8 8 7 7 7 7 7 7
3 3 4 4 4 5 5 4 3 2 3 3 3 3 4 5 6 7 7 8 7 7 7 6 7 7 9 13 11 8 7 7 7 8 8 8 8 8 8 8 8 7
2 1 1 2 3 3 3 3 2 2 3 5 4 3 3 3 4 6 7 7 8 8 8 7 7 7 12 13 14 14 10 8 8 9 8 9 8 8 9 9 8 7
6 4 1 1 2 3 2 2 1 1 3 4 4 4 3 2 2 4 5 6 6 7 8 8 8 11 14 13 14 15 13 10 8 8 8 8 9 9 9 8 8 7
7 7 6 6 5 2 1 1 1 0 0 2 3 3 3 3 3 3 3 4 5 6 7 8 7 11 14 14 14 15 16 14 8 8 8 8 9 9 9 9 8 7
7 7 7 7 6 6 6 5 4 3 2 1 3 4 4 4 3 3 3 3 3 3 4 4 5 8 12 13 14 15 16 13 9 10 9 9 9 9 9 9 9 9
7 6 7 6 6 6 6 7 6 5 4 3 2 2 4 5 5 3 3 3 3 3 3 2 3 4 8 13 15 16 17 13 9 9 8 9 9 9 9 10 10 9
6 5 5 5 6 5 5 5 5 5 5 4 3 3 3 4 6 5 4 3 2 2 2 3 2 1 4 9 12 14 15 9 8 9 9 10 10 9 9 9 9 9
4 5 6 6 6 5 4 4 3 3 4 2 4 3 4 5 6 7 6 5 3 2 1 2 4 5 6 7 8 10 6 6 6 7 8 9 10 10 9 8 8 7
5 5 6 6 5 6 5 4 3 3 3 3 4 4 4 3 3 6 7 6 3 3 2 3 4 5 6 6 5 5 5 5 6 6 8 8 9 9 7 6 7 11
6 6 6 5 4 4 4 4 5 5 5 4 4 4 4 4 3 4 6 6 4 2 4 3 3 5 7 9 9 5 2 3 4 5 7 8 8 8 7 6 7 9
5 5 4 5 6 6 6 6 5 5 6 5 5 4 3 4 3 3 5 5 5 4 3 4 4 4 5 9 9 8 4 3 2 3 6 7 6 7 7 7 8 8
Wind_Direction
165 176 184 181 191 188 180 182 186 183 194 187 188 197 193 195 183 183 187 181 188 191 195 196 196 207 214 213 215 214 203 218 244 224 216 213 280 359 325 333 351 13
167 172 181 179 186 191 189 189 182 185 191 191 196 188 197 180 195 185 187 190 193 198 192 189 195 203 210 206 206 202 222 214 235 226 242 272 265 273 283 298 313 322
173 169 178 182 188 196 195 193 185 190 187 193 188 187 191 191 191 194 192 192 198 205 199 198 195 205 205 206 198 203 214 222 233 236 220 245 261 276 270 275 301 304
198 187 182 189 188 196 196 185 192 192 186 177 194 195 192 192 184 192 198 200 197 207 206 199 202 201 200 199 183 197 210 216 226 205 220 259 260 249 271 268 274 297
198 201 199 194 194 197 191 194 194 192 195 203 191 191 191 193 184 193 200 210 202 210 204 206 200 198 193 187 179 189 191 207 202 178 194 230 253 236 257 256 271 279
203 201 204 198 201 194 197 203 204 192 198 199 205 192 200 194 194 196 200 207 211 210 208 207 199 199 189 188 180 193 195 200 204 180 192 216 252 241 250 249 252 269
197 197 207 208 209 212 206 207 208 203 199 205 188 201 196 201 203 207 204 205 210 214 215 210 207 204 200 192 190 205 212 212 217 203 210 228 225 257 250 241 243 252
196 190 191 195 209 217 221 216 212 211 208 199 201 207 189 201 206 208 207 204 206 213 217 218 214 210 205 195 204 212 223 206 216 217 230 240 225 239 246 238 232 242
190 193 191 198 206 209 218 218 216 219 211 206 213 211 200 201 204 206 203 200 205 206 209 215 215 217 212 202 211 213 217 220 212 209 220 233 235 238 238 235 239 239
193 197 198 205 212 214 214 214 211 211 209 214 217 216 209 208 203 204 201 199 203 204 203 209 210 218 219 217 216 213 216 219 216 214 217 224 230 236 240 234 237 247
220 229 215 213 218 221 226 222 215 211 207 213 214 220 216 202 209 202 202 201 205 204 204 206 210 208 214 222 226 222 221 222 219 216 219 221 225 230 232 231 237 238
4 353 245 229 226 225 228 228 225 219 214 215 213 222 221 212 202 202 200 205 209 208 204 207 207 207 210 217 220 222 225 231 230 225 224 221 224 224 227 225 231 237
189 210 212 226 210 214 230 240 232 225 215 211 206 215 219 221 214 207 207 203 209 208 209 206 205 207 210 214 219 220 221 226 234 235 235 233 231 229 228 226 226 233
207 199 184 184 224 228 208 219 230 228 225 217 197 206 216 219 219 214 212 206 208 209 213 208 205 208 210 212 214 217 219 225 228 233 236 237 238 236 233 231 229 230
200 230 273 244 208 220 231 222 225 240 233 202 201 209 211 215 218 218 215 213 214 213 215 212 211 215 212 210 212 217 219 228 228 231 234 237 239 240 237 236 236 233
189 194 204 211 216 219 225 231 236 273 280 250 203 199 222 222 219 216 215 213 215 219 219 217 221 222 222 214 209 209 212 221 224 228 231 233 235 239 241 237 236 234
130 193 217 249 260 255 251 244 256 270 284 288 265 229 217 214 210 220 219 217 214 214 215 217 223 228 227 219 218 218 214 214 219 225 224 229 232 232 239 239 240 238
25 35 58 289 273 282 289 294 306 270 259 256 268 263 265 273 225 215 221 223 221 219 219 217 220 225 223 221 218 220 220 220 220 224 223 224 229 233 238 241 243 244
27 22 21 25 13 351 306 191 164 122 299 306 291 310 336 337 306 296 266 242 225 223 226 224 226 224 222 221 221 220 220 220 228 223 226 227 227 231 236 239 241 245
31 26 18 15 15 16 15 27 48 65 52 2 327 322 325 328 321 307 290 278 259 244 246 254 242 238 223 223 225 225 225 215 229 230 228 230 229 229 233 235 235 236
22 31 22 3 1 9 8 10 11 11 25 27 13 332 317 315 306 304 293 279 283 278 274 267 255 279 251 234 229 227 229 217 225 232 237 237 233 230 231 234 236 233
4 22 30 25 11 5 11 9 359 347 340 350 7 5 352 333 318 300 284 281 277 292 308 306 295 317 255 240 238 240 236 226 222 226 233 239 239 236 232 234 236 235
18 20 24 28 22 7 5 24 355 332 325 334 352 1 2 355 332 316 303 295 299 305 301 285 286 266 261 262 253 250 246 243 240 234 237 239 243 242 240 239 239 235
22 27 28 32 28 357 329 323 326 334 341 349 347 343 353 0 320 294 293 295 303 308 284 282 284 281 261 268 269 263 211 231 229 231 241 245 250 250 247 248 242 241
11 21 17 14 13 344 324 333 339 337 332 349 355 351 344 344 340 317 302 300 297 291 297 297 286 294 283 278 282 281 220 237 237 232 246 246 248 255 251 247 252 252
357 6 14 10 360 352 344 340 339 345 356 359 3 2 0 10 13 337 320 327 336 337 354 357 342 325 324 309 301 303 259 268 257 248 251 257 251 250 255 252 248 253